Flag for U.S.A. Weather past 2 weeks in Fort Wayne, Indiana, U.S.A.

Now
66 °F

Fog.


Feels Like: 66 °F
Forecast: 65 / 82 °F
Wind: 3 mph from Southwest

Location: Fort Wayne International Airport

Current Time: Aug 30, 2015 at 8:21:04 AM

Latest Report: Aug 30, 2015 at 7:54 AM


Visibility: 3 mi

Pressure: 30.06 "Hg

Humidity: 93%

Dew point: 64 °F

Location of Fort WayneLocation

Historic Weather in Fort Wayne — Graph

°F

Fort Wayne temperature yesterday

Maximum temperature yesterday: 79 °F (at 2:54 PM)
Minimum temperature yesterday: 63 °F (at 3:54 AM)
Average temperature yesterday: 71 °F

Past Weeks' High & Low Weather Summary

 TemperatureHumidityPressure
High86 °F (Aug 16, 3:54 PM)97% (Aug 15, 6:54 AM)30.24 "Hg (Aug 15, 6:54 AM)
Low50 °F (Aug 27, 5:54 AM)42% (Aug 21, 12:54 PM)29.73 "Hg (Aug 19, 7:54 PM)
Average68 °F76%30.03 "Hg
* Reported Aug 15 6:54 AM — Aug 30 6:54 AM, Fort Wayne, Weather by CustomWeather, © 2015

Note: Actual official high and low records may vary slightly from our data, if they occured in-between our weather recording intervals... More about our weather records

Advertising

Fort Wayne weather history for previous 24 hours

 ConditionsComfort  
Time TempWeatherWind HumidityBarometerVisibility
6:54 AM
Sun, Aug 30
65 °FFog.3 mph97%30.05 "Hg5 mi
5:54 AM67 °FPartly cloudy.No wind93%30.04 "Hg10 mi
4:54 AM67 °FFog.5 mph97%30.02 "Hg6 mi
3:54 AM67 °FFog.No wind97%30.03 "Hg2 mi
2:54 AM69 °FFog.No wind96%30.02 "Hg4 mi
1:54 AM70 °FLight rain. Overcast.No wind93%30.04 "Hg7 mi
12:54 AM70 °FLight rain. Fog.7 mph93%30.06 "Hg6 mi
11:54 PM
Sat, Aug 29
71 °FPassing clouds.No wind90%30.06 "Hg8 mi
10:54 PM71 °FLight rain. Partly cloudy.8 mph93%30.06 "Hg7 mi
9:54 PM72 °FOvercast.5 mph93%30.05 "Hg9 mi
8:54 PM72 °FCloudy.5 mph93%30.04 "Hg10 mi
7:54 PM74 °FPartly sunny.No wind88%30.03 "Hg8 mi
6:54 PM75 °FLight rain. Broken clouds.No wind85%30.03 "Hg8 mi
5:54 PM76 °FOvercast.No wind82%30.03 "Hg7 mi
4:54 PM75 °FLight rain. Overcast.6 mph90%30.05 "Hg8 mi
3:54 PM77 °FCloudy.No wind77%30.06 "Hg10 mi
2:54 PM79 °FPartly sunny.No wind67%30.07 "Hg10 mi
1:54 PM77 °FLight rain. Broken clouds.No wind71%30.07 "Hg10 mi
12:54 PM78 °FMostly cloudy.No wind66%30.09 "Hg10 mi
11:54 AM77 °FPartly sunny.No wind66%30.10 "Hg10 mi
10:54 AM75 °FMostly cloudy.No wind69%30.09 "Hg10 mi
9:54 AM69 °FBroken clouds.No wind79%30.10 "Hg9 mi
8:54 AM65 °FMostly cloudy.3 mph85%30.10 "Hg8 mi
Weather by CustomWeather, © 2015

See weather overviewHow to use our weather pages